Regional Weather Roundup
Issued by NWS

Home | Current Version | Previous Version | Graphics & Text | Print | Product List | Glossary On
Versions: 1 2 3 4 5 6 7 8 9 10 11 12 13 14 15 16 17 18 19 20 21 22 23 24 25 26 27 28 29 30 31 32 33 34 35 36 37 38 39 40 41 42 43 44 45 46 47 48 49 50
000
ASUS43 KFSD 230910
RWRSD

WEATHER ROUNDUP FOR SOUTH DAKOTA
NATIONAL WEATHER SERVICE SIOUX FALLS SD
300 AM CST THU NOV 23 2017

NOTE: "FAIR" INDICATES FEW OR NO CLOUDS BELOW 12,000 FEET WITH NO
SIGNIFICANT WEATHER AND/OR OBSTRUCTIONS TO VISIBILITY.


SDZ001>005-009-010-012>017-231000-
NORTHWEST AND NORTH CENTRAL SOUTH DAKOTA

CITY           SKY/WX    TMP DP  RH WIND       PRES   REMARKS
BUFFALO          N/A     44  38  79 W14       29.90F
FAITH            N/A     43  39  86 SW9       29.97F
MOBRIDGE       CLOUDY    28  26  92 CALM      29.93F
$$

SDZ012>016-024>037-041>051-057-063-072>074-231000-
SOUTHWEST AND SOUTH CENTRAL SOUTH DAKOTA

CITY           SKY/WX    TMP DP  RH WIND       PRES   REMARKS
RAPID CTY ARPT CLOUDY    44  36  73 W5        30.04S
PIERRE         CLOUDY    38  36  92 SW9       29.98S
CUSTER         CLOUDY    50  35  56 W10       30.13S
ELLSWORTH AFB  CLOUDY    41  37  85 W7        30.03S
PHILIP         CLEAR     42  38  85 W12       30.00F
PINE RIDGE     CLEAR     38  35  89 CALM      30.09S
SPEARFISH      FAIR      55  37  50 W12       30.04F
WINNER         FAIR      48  38  68 CALM      30.03R
$$

SDZ004>011-016>023-039-040-231000-
NORTHEAST SOUTH DAKOTA

CITY           SKY/WX    TMP DP  RH WIND       PRES   REMARKS
ABERDEEN       CLOUDY    21  20  96 SW5       30.00R WCI  15
WATERTOWN      CLOUDY    26  22  84 NW5       29.95R WCI  20
BROOKINGS      CLOUDY    25  21  85 W5        29.96R WCI  19
SISSETON         N/A     27  20  75 NW9       29.95S WCI  18
$$

SDZ017-020-022-023-036>040-048>070-231000-
SOUTHEAST SOUTH DAKOTA

CITY           SKY/WX    TMP DP  RH WIND       PRES   REMARKS
SIOUX FALLS    CLOUDY    34  28  79 NW9       29.96S WCI  27
HURON          CLOUDY    24  23  96 W7        30.01R WCI  16
CHAMBERLAIN    CLEAR     35  34  94 CALM      30.02R
MITCHELL       CLOUDY    31  28  89 NW8       30.01S WCI  23
YANKTON        CLEAR     37  31  78 NW9       30.00R
$$

ABBREVIATIONS USED IN REMARKS
   TC - TEMPERATURE IN CELSIUS
  WCI - WIND CHILL INDEX
   HX - HEAT INDEX
  VSB - VISIBILITY




USA.gov is the U.S. government's official web portal to all federal, state and local government web resources and services.